Year,Month,Day,Hour,Minute,Value (Times are PST for temperature in C)
2019,08,14,00,00,14.50
2019,08,14,00,01,14.50
2019,08,14,00,02,14.50
2019,08,14,00,03,14.40
2019,08,14,00,04,14.40
2019,08,14,00,05,14.40
2019,08,14,00,06,14.40
2019,08,14,00,07,14.40
2019,08,14,00,08,14.40
2019,08,14,00,09,14.40
2019,08,14,00,10,14.40
2019,08,14,00,11,14.40
2019,08,14,00,12,14.30
2019,08,14,00,13,14.30
2019,08,14,00,14,14.30
2019,08,14,00,15,14.30
2019,08,14,00,16,14.30
2019,08,14,00,17,14.30
2019,08,14,00,18,14.30
2019,08,14,00,19,14.30
2019,08,14,00,20,14.30
2019,08,14,00,21,14.30
2019,08,14,00,22,14.20
2019,08,14,00,23,14.20
2019,08,14,00,24,14.20
2019,08,14,00,25,14.20
2019,08,14,00,26,14.20
2019,08,14,00,27,14.20
2019,08,14,00,28,14.20
2019,08,14,00,29,14.20
2019,08,14,00,30,14.20
2019,08,14,00,31,14.20
2019,08,14,00,32,14.20
2019,08,14,00,33,14.20
2019,08,14,00,34,14.20
2019,08,14,00,35,14.20
2019,08,14,00,36,14.20
2019,08,14,00,37,14.20
2019,08,14,00,38,14.20
2019,08,14,00,39,14.20
2019,08,14,00,40,14.10
2019,08,14,00,41,14.10
2019,08,14,00,42,14.10
2019,08,14,00,43,14.10
2019,08,14,00,44,14.10
2019,08,14,00,45,14.10
2019,08,14,00,46,14.10
2019,08,14,00,47,14.10
2019,08,14,00,48,14.00
2019,08,14,00,49,14.00
2019,08,14,00,50,14.00
2019,08,14,00,51,14.00
2019,08,14,00,52,14.00
2019,08,14,00,53,14.00
2019,08,14,00,54,13.90
2019,08,14,00,55,13.90
2019,08,14,00,56,13.90
2019,08,14,00,57,13.90
2019,08,14,00,58,13.90
2019,08,14,00,59,13.90
2019,08,14,01,00,13.90
2019,08,14,01,01,13.90
2019,08,14,01,02,13.90
2019,08,14,01,03,13.90
2019,08,14,01,04,13.90
2019,08,14,01,05,13.90
2019,08,14,01,06,13.80
2019,08,14,01,07,13.80
2019,08,14,01,08,13.80
2019,08,14,01,09,13.80
2019,08,14,01,10,13.80
2019,08,14,01,11,13.80
2019,08,14,01,12,13.80
2019,08,14,01,13,13.80
2019,08,14,01,14,13.80
2019,08,14,01,15,13.80
2019,08,14,01,16,13.80
2019,08,14,01,17,13.80
2019,08,14,01,18,13.80
2019,08,14,01,19,13.80
2019,08,14,01,20,13.80
2019,08,14,01,21,13.80
2019,08,14,01,22,13.80
2019,08,14,01,23,13.80
2019,08,14,01,24,13.80
2019,08,14,01,25,13.80
2019,08,14,01,26,13.70
2019,08,14,01,27,13.70
2019,08,14,01,28,13.70
2019,08,14,01,29,13.70
2019,08,14,01,30,13.70
2019,08,14,01,31,13.70
2019,08,14,01,32,13.70
2019,08,14,01,33,13.70
2019,08,14,01,34,13.70
2019,08,14,01,35,13.70
2019,08,14,01,36,13.70
2019,08,14,01,37,13.70
2019,08,14,01,38,13.70
2019,08,14,01,39,13.70
2019,08,14,01,40,13.70
2019,08,14,01,41,13.70
2019,08,14,01,42,13.70
2019,08,14,01,43,13.70
2019,08,14,01,44,13.70
2019,08,14,01,45,13.70
2019,08,14,01,46,13.70
2019,08,14,01,47,13.70
2019,08,14,01,48,13.60
2019,08,14,01,49,13.60
2019,08,14,01,50,13.60
2019,08,14,01,51,13.60
2019,08,14,01,52,13.60
2019,08,14,01,53,13.60
2019,08,14,01,54,13.60
2019,08,14,01,55,13.60
2019,08,14,01,56,13.60
2019,08,14,01,57,13.60
2019,08,14,01,58,13.60
2019,08,14,01,59,13.60
2019,08,14,02,00,13.50
2019,08,14,02,01,13.50
2019,08,14,02,02,13.60
2019,08,14,02,03,13.50
2019,08,14,02,04,13.50
2019,08,14,02,05,13.50
2019,08,14,02,06,13.50
2019,08,14,02,07,13.50
2019,08,14,02,08,13.50
2019,08,14,02,09,13.50
2019,08,14,02,10,13.50
2019,08,14,02,11,13.50
2019,08,14,02,12,13.50
2019,08,14,02,13,13.50
2019,08,14,02,14,13.50
2019,08,14,02,15,13.50
2019,08,14,02,16,13.50
2019,08,14,02,17,13.50
2019,08,14,02,18,13.50
2019,08,14,02,19,13.50
2019,08,14,02,20,13.50
2019,08,14,02,21,13.50
2019,08,14,02,22,13.50
2019,08,14,02,23,13.50
2019,08,14,02,24,13.50
2019,08,14,02,25,13.50
2019,08,14,02,26,13.50
2019,08,14,02,27,13.50
2019,08,14,02,28,13.50
2019,08,14,02,29,13.50
2019,08,14,02,30,13.50
2019,08,14,02,31,13.50
2019,08,14,02,32,13.50
2019,08,14,02,33,13.50
2019,08,14,02,34,13.50
2019,08,14,02,35,13.50
2019,08,14,02,36,13.50
2019,08,14,02,37,13.50
2019,08,14,02,38,13.50
2019,08,14,02,39,13.50
2019,08,14,02,40,13.50
2019,08,14,02,41,13.50
2019,08,14,02,42,13.60
2019,08,14,02,43,13.60
2019,08,14,02,44,13.60
2019,08,14,02,45,13.60
2019,08,14,02,46,13.60
2019,08,14,02,47,13.60
2019,08,14,02,48,13.60
2019,08,14,02,49,13.60
2019,08,14,02,50,13.60
2019,08,14,02,51,13.60
2019,08,14,02,52,13.60
2019,08,14,02,53,13.60
2019,08,14,02,54,13.60
2019,08,14,02,55,13.60
2019,08,14,02,56,13.60
2019,08,14,02,57,13.60
2019,08,14,02,58,13.60
2019,08,14,02,59,13.60
2019,08,14,03,00,13.60
2019,08,14,03,01,13.60
2019,08,14,03,02,13.60
2019,08,14,03,03,13.60
2019,08,14,03,04,13.60
2019,08,14,03,05,13.60
2019,08,14,03,06,13.60
2019,08,14,03,07,13.60
2019,08,14,03,08,13.60
2019,08,14,03,09,13.60
2019,08,14,03,10,13.60
2019,08,14,03,11,13.60
2019,08,14,03,12,13.60
2019,08,14,03,13,13.60
2019,08,14,03,14,13.60
2019,08,14,03,15,13.60
2019,08,14,03,16,13.70
2019,08,14,03,17,13.70
2019,08,14,03,18,13.70
2019,08,14,03,19,13.70
2019,08,14,03,20,13.70
2019,08,14,03,21,13.70
2019,08,14,03,22,13.70
2019,08,14,03,23,13.70
2019,08,14,03,24,13.70
2019,08,14,03,25,13.70
2019,08,14,03,26,13.70
2019,08,14,03,27,13.70
2019,08,14,03,28,13.70
2019,08,14,03,29,13.70
2019,08,14,03,30,13.70
2019,08,14,03,31,13.70
2019,08,14,03,32,13.70
2019,08,14,03,33,13.70
2019,08,14,03,34,13.70
2019,08,14,03,35,13.80
2019,08,14,03,36,13.80
2019,08,14,03,37,13.80
2019,08,14,03,38,13.80
2019,08,14,03,39,13.80
2019,08,14,03,40,13.80
2019,08,14,03,41,13.80
2019,08,14,03,42,13.80
2019,08,14,03,43,13.80
2019,08,14,03,44,13.80
2019,08,14,03,45,13.80
2019,08,14,03,46,13.80
2019,08,14,03,47,13.80
2019,08,14,03,48,13.80
2019,08,14,03,49,13.80
2019,08,14,03,50,13.80
2019,08,14,03,51,13.80
2019,08,14,03,52,13.80
2019,08,14,03,53,13.80
2019,08,14,03,54,13.80
2019,08,14,03,55,13.80
2019,08,14,03,56,13.80
2019,08,14,03,57,13.80
2019,08,14,03,58,13.80
2019,08,14,03,59,13.80
2019,08,14,04,00,13.80
2019,08,14,04,01,13.80
2019,08,14,04,02,13.80
2019,08,14,04,03,13.80
2019,08,14,04,04,13.80
2019,08,14,04,05,13.80
2019,08,14,04,06,13.80
2019,08,14,04,07,13.80
2019,08,14,04,08,13.80
2019,08,14,04,09,13.80
2019,08,14,04,10,13.70
2019,08,14,04,11,13.70
2019,08,14,04,12,13.70
2019,08,14,04,13,13.70
2019,08,14,04,14,13.70
2019,08,14,04,15,13.70
2019,08,14,04,16,13.70
2019,08,14,04,17,13.70
2019,08,14,04,18,13.70
2019,08,14,04,19,13.70
2019,08,14,04,20,13.70
2019,08,14,04,21,13.70
2019,08,14,04,22,13.70
2019,08,14,04,23,13.70
2019,08,14,04,24,13.70
2019,08,14,04,25,13.70
2019,08,14,04,26,13.70
2019,08,14,04,27,13.70
2019,08,14,04,28,13.70
2019,08,14,04,29,13.70
2019,08,14,04,30,13.70
2019,08,14,04,31,13.70
2019,08,14,04,32,13.70
2019,08,14,04,33,13.70
2019,08,14,04,34,13.70
2019,08,14,04,35,13.70
2019,08,14,04,36,13.70
2019,08,14,04,37,13.70
2019,08,14,04,38,13.70
2019,08,14,04,39,13.70
2019,08,14,04,40,13.70
2019,08,14,04,41,13.70
2019,08,14,04,42,13.70
2019,08,14,04,43,13.70
2019,08,14,04,44,13.70
2019,08,14,04,45,13.70
2019,08,14,04,46,13.70
2019,08,14,04,47,13.60
2019,08,14,04,48,13.60
2019,08,14,04,49,13.60
2019,08,14,04,50,13.60
2019,08,14,04,51,13.60
2019,08,14,04,52,13.60
2019,08,14,04,53,13.60
2019,08,14,04,54,13.60
2019,08,14,04,55,13.60
2019,08,14,04,56,13.60
2019,08,14,04,57,13.60
2019,08,14,04,58,13.60
2019,08,14,04,59,13.60
2019,08,14,05,00,13.60
2019,08,14,05,01,13.60
2019,08,14,05,02,13.60
2019,08,14,05,03,13.60
2019,08,14,05,04,13.60
2019,08,14,05,05,13.60
2019,08,14,05,06,13.60
2019,08,14,05,07,13.60
2019,08,14,05,08,13.60
2019,08,14,05,09,13.60
2019,08,14,05,10,13.60
2019,08,14,05,11,13.60
2019,08,14,05,12,13.60
2019,08,14,05,13,13.60
2019,08,14,05,14,13.60
2019,08,14,05,15,13.60
2019,08,14,05,16,13.60
2019,08,14,05,17,13.60
2019,08,14,05,18,13.60
2019,08,14,05,19,13.60
2019,08,14,05,20,13.60
2019,08,14,05,21,13.60
2019,08,14,05,22,13.60
2019,08,14,05,23,13.60
2019,08,14,05,24,13.60
2019,08,14,05,25,13.60
2019,08,14,05,26,13.60
2019,08,14,05,27,13.60
2019,08,14,05,28,13.60
2019,08,14,05,29,13.70
2019,08,14,05,30,13.70
2019,08,14,05,31,13.70
2019,08,14,05,32,13.70
2019,08,14,05,33,13.70
2019,08,14,05,34,13.70
2019,08,14,05,35,13.70
2019,08,14,05,36,13.70
2019,08,14,05,37,13.70
2019,08,14,05,38,13.70
2019,08,14,05,39,13.70
2019,08,14,05,40,13.70
2019,08,14,05,41,13.70
2019,08,14,05,42,13.80
2019,08,14,05,43,13.80
2019,08,14,05,44,13.80
2019,08,14,05,45,13.80
2019,08,14,05,46,13.80
2019,08,14,05,47,13.80
2019,08,14,05,48,13.80
2019,08,14,05,49,13.80
2019,08,14,05,50,13.80
2019,08,14,05,51,13.80
2019,08,14,05,52,13.80
2019,08,14,05,53,13.80
2019,08,14,05,54,13.80
2019,08,14,05,55,13.80
2019,08,14,05,56,13.80
2019,08,14,05,57,13.90
2019,08,14,05,58,13.90
2019,08,14,05,59,13.90
2019,08,14,06,00,13.90
2019,08,14,06,01,13.90
2019,08,14,06,02,13.90
2019,08,14,06,03,13.90
2019,08,14,06,04,14.00
2019,08,14,06,05,14.00
2019,08,14,06,06,14.10
2019,08,14,06,07,14.10
2019,08,14,06,08,14.10
2019,08,14,06,09,14.10
2019,08,14,06,10,14.10
2019,08,14,06,11,14.20
2019,08,14,06,12,14.20
2019,08,14,06,13,14.20
2019,08,14,06,14,14.20
2019,08,14,06,15,14.20
2019,08,14,06,16,14.20
2019,08,14,06,17,14.20
2019,08,14,06,18,14.20
2019,08,14,06,19,14.20
2019,08,14,06,20,14.20
2019,08,14,06,21,14.20
2019,08,14,06,22,14.20
2019,08,14,06,23,14.20
2019,08,14,06,24,14.20
2019,08,14,06,25,14.20
2019,08,14,06,26,14.20
2019,08,14,06,27,14.20
2019,08,14,06,28,14.20
2019,08,14,06,29,14.20
2019,08,14,06,30,14.20
2019,08,14,06,31,14.20
2019,08,14,06,32,14.20
2019,08,14,06,33,14.20
2019,08,14,06,34,14.20
2019,08,14,06,35,14.20
2019,08,14,06,36,14.20
2019,08,14,06,37,14.20
2019,08,14,06,38,14.20
2019,08,14,06,39,14.30
2019,08,14,06,40,14.30
2019,08,14,06,41,14.30
2019,08,14,06,42,14.30
2019,08,14,06,43,14.30
2019,08,14,06,44,14.30
2019,08,14,06,45,14.30
2019,08,14,06,46,14.30
2019,08,14,06,47,14.30
2019,08,14,06,48,14.40
2019,08,14,06,49,14.40
2019,08,14,06,50,14.40
2019,08,14,06,51,14.40
2019,08,14,06,52,14.40
2019,08,14,06,53,14.40
2019,08,14,06,54,14.40
2019,08,14,06,55,14.40
2019,08,14,06,56,14.50
2019,08,14,06,57,14.50
2019,08,14,06,58,14.60
2019,08,14,06,59,14.60
2019,08,14,07,00,14.60
2019,08,14,07,01,14.60
2019,08,14,07,02,14.70
2019,08,14,07,03,14.70
2019,08,14,07,04,14.70
2019,08,14,07,05,14.70
2019,08,14,07,06,14.70
2019,08,14,07,07,14.80
2019,08,14,07,08,14.80
2019,08,14,07,09,14.80
2019,08,14,07,10,14.90
2019,08,14,07,11,14.90
2019,08,14,07,12,15.00
2019,08,14,07,13,15.00
2019,08,14,07,14,15.10
2019,08,14,07,15,15.20
2019,08,14,07,16,15.20
2019,08,14,07,17,15.30
2019,08,14,07,18,15.40
2019,08,14,07,19,15.50
2019,08,14,07,20,15.50
2019,08,14,07,21,15.60
2019,08,14,07,22,15.70
2019,08,14,07,23,15.70
2019,08,14,07,24,15.80
2019,08,14,07,25,15.80
2019,08,14,07,26,15.80
2019,08,14,07,27,15.90
2019,08,14,07,28,15.90
2019,08,14,07,29,15.90
2019,08,14,07,30,16.00
2019,08,14,07,31,16.00
2019,08,14,07,32,16.10
2019,08,14,07,33,16.10
2019,08,14,07,34,16.20
2019,08,14,07,35,16.20
2019,08,14,07,36,16.20
2019,08,14,07,37,16.30
2019,08,14,07,38,16.30
2019,08,14,07,39,16.40
2019,08,14,07,40,16.50
2019,08,14,07,41,16.50
2019,08,14,07,42,16.70
2019,08,14,07,43,16.80
2019,08,14,07,44,16.90
2019,08,14,07,45,17.00
2019,08,14,07,46,17.10
2019,08,14,07,47,17.20
2019,08,14,07,48,17.30
2019,08,14,07,49,17.40
2019,08,14,07,50,17.60
2019,08,14,07,51,17.70
2019,08,14,07,52,17.80
2019,08,14,07,53,17.90
2019,08,14,07,54,18.00
2019,08,14,07,55,18.20
2019,08,14,07,56,18.20
2019,08,14,07,57,18.30
2019,08,14,07,58,18.50
2019,08,14,07,59,18.60
2019,08,14,08,00,18.60
2019,08,14,08,01,18.70
2019,08,14,08,02,18.80
2019,08,14,08,03,18.90
2019,08,14,08,04,19.00
2019,08,14,08,05,19.10
2019,08,14,08,06,19.20
2019,08,14,08,07,19.30
2019,08,14,08,08,19.40
2019,08,14,08,09,19.50
2019,08,14,08,10,19.60
2019,08,14,08,11,19.60
2019,08,14,08,12,19.70
2019,08,14,08,13,19.80
2019,08,14,08,14,19.90
2019,08,14,08,15,19.90
2019,08,14,08,16,20.00
2019,08,14,08,17,20.10
2019,08,14,08,18,20.20
2019,08,14,08,19,20.20
2019,08,14,08,20,20.30
2019,08,14,08,21,20.40
2019,08,14,08,22,20.40
2019,08,14,08,23,20.50
2019,08,14,08,24,20.60
2019,08,14,08,25,20.60
2019,08,14,08,26,20.70
2019,08,14,08,27,20.70
2019,08,14,08,28,20.80
2019,08,14,08,29,20.80
2019,08,14,08,30,20.90
2019,08,14,08,31,21.00
2019,08,14,08,32,21.00
2019,08,14,08,33,21.10
2019,08,14,08,34,21.20
2019,08,14,08,35,21.20
2019,08,14,08,36,21.30
2019,08,14,08,37,21.30
2019,08,14,08,38,21.30
2019,08,14,08,39,21.30
2019,08,14,08,40,21.30
2019,08,14,08,41,21.30
2019,08,14,08,42,21.30
2019,08,14,08,43,21.30
2019,08,14,08,44,21.40
2019,08,14,08,45,21.40
2019,08,14,08,46,21.40
2019,08,14,08,47,21.50
2019,08,14,08,48,21.50
2019,08,14,08,49,21.60
2019,08,14,08,50,21.60
2019,08,14,08,51,21.70
2019,08,14,08,52,21.70
2019,08,14,08,53,21.70
2019,08,14,08,54,21.80
2019,08,14,08,55,21.80
2019,08,14,08,56,21.90
2019,08,14,08,57,21.90
2019,08,14,08,58,21.90
2019,08,14,08,59,22.00
2019,08,14,09,00,22.10
2019,08,14,09,01,22.10
2019,08,14,09,02,22.20
2019,08,14,09,03,22.20
2019,08,14,09,04,22.20
2019,08,14,09,05,22.20
2019,08,14,09,06,22.20
2019,08,14,09,07,22.20
2019,08,14,09,08,22.20
2019,08,14,09,09,22.20
2019,08,14,09,10,22.30
2019,08,14,09,11,22.30
2019,08,14,09,12,22.30
2019,08,14,09,13,22.30
2019,08,14,09,14,22.20
2019,08,14,09,15,22.20
2019,08,14,09,16,22.20
2019,08,14,09,17,22.20
2019,08,14,09,18,22.20
2019,08,14,09,19,22.30
2019,08,14,09,20,22.30
2019,08,14,09,21,22.30
2019,08,14,09,22,22.30
2019,08,14,09,23,22.30
2019,08,14,09,24,22.30
2019,08,14,09,25,22.30
2019,08,14,09,26,22.40
2019,08,14,09,27,22.40
2019,08,14,09,28,22.40
2019,08,14,09,29,22.40
2019,08,14,09,30,22.50
2019,08,14,09,31,22.50
2019,08,14,09,32,22.50
2019,08,14,09,33,22.60
2019,08,14,09,34,22.60
2019,08,14,09,35,22.70
2019,08,14,09,36,22.80
2019,08,14,09,37,22.80
2019,08,14,09,38,22.90
2019,08,14,09,39,22.90
2019,08,14,09,40,22.90
2019,08,14,09,41,23.00
2019,08,14,09,42,23.00
2019,08,14,09,43,23.00
2019,08,14,09,44,23.00
2019,08,14,09,45,23.10
2019,08,14,09,46,23.00
2019,08,14,09,47,23.00
2019,08,14,09,48,23.00
2019,08,14,09,49,22.90
2019,08,14,09,50,22.90
2019,08,14,09,51,22.90
2019,08,14,09,52,22.90
2019,08,14,09,53,22.90
2019,08,14,09,54,22.90
2019,08,14,09,55,22.90
2019,08,14,09,56,22.90
2019,08,14,09,57,22.90
2019,08,14,09,58,22.90
2019,08,14,09,59,22.90
2019,08,14,10,00,23.00
2019,08,14,10,01,23.00
2019,08,14,10,02,23.00
2019,08,14,10,03,23.00
2019,08,14,10,04,23.00
2019,08,14,10,05,23.10
2019,08,14,10,06,23.10
2019,08,14,10,07,23.10
2019,08,14,10,08,23.10
2019,08,14,10,09,23.10
2019,08,14,10,10,23.10
2019,08,14,10,11,23.10
2019,08,14,10,12,23.20
2019,08,14,10,13,23.20
2019,08,14,10,14,23.20
2019,08,14,10,15,23.30
2019,08,14,10,16,23.30
2019,08,14,10,17,23.30
2019,08,14,10,18,23.30
2019,08,14,10,19,23.30
2019,08,14,10,20,23.30
2019,08,14,10,21,23.30
2019,08,14,10,22,23.40
2019,08,14,10,23,23.40
2019,08,14,10,24,23.40
2019,08,14,10,25,23.30
2019,08,14,10,26,23.30
2019,08,14,10,27,23.30
2019,08,14,10,28,23.30
2019,08,14,10,29,23.30
2019,08,14,10,30,23.30
2019,08,14,10,31,23.30
2019,08,14,10,32,23.30
2019,08,14,10,33,23.30
2019,08,14,10,34,23.30
2019,08,14,10,35,23.30
2019,08,14,10,36,23.30
2019,08,14,10,37,23.30
2019,08,14,10,38,23.30
2019,08,14,10,39,23.30
2019,08,14,10,40,23.30
2019,08,14,10,41,23.40
2019,08,14,10,42,23.40
2019,08,14,10,43,23.40
2019,08,14,10,44,23.50
2019,08,14,10,45,23.50
2019,08,14,10,46,23.60
2019,08,14,10,47,23.60
2019,08,14,10,48,23.60
2019,08,14,10,49,23.60
2019,08,14,10,50,23.60
2019,08,14,10,51,23.60
2019,08,14,10,52,23.60
2019,08,14,10,53,23.60
2019,08,14,10,54,23.60
2019,08,14,10,55,23.70
2019,08,14,10,56,23.70
2019,08,14,10,57,23.70
2019,08,14,10,58,23.70
2019,08,14,10,59,23.70
2019,08,14,11,00,23.70
2019,08,14,11,01,23.70
2019,08,14,11,02,23.70
2019,08,14,11,03,23.70
2019,08,14,11,04,23.70
2019,08,14,11,05,23.70
2019,08,14,11,06,23.70
2019,08,14,11,07,23.70
2019,08,14,11,08,23.70
2019,08,14,11,09,23.80
2019,08,14,11,10,23.80
2019,08,14,11,11,23.80
2019,08,14,11,12,23.80
2019,08,14,11,13,23.80
2019,08,14,11,14,23.80
2019,08,14,11,15,23.70
2019,08,14,11,16,23.70
2019,08,14,11,17,23.70
2019,08,14,11,18,23.70
2019,08,14,11,19,23.70
2019,08,14,11,20,23.60
2019,08,14,11,21,23.60
2019,08,14,11,22,23.60
2019,08,14,11,23,23.60
2019,08,14,11,24,23.60
2019,08,14,11,25,23.70
2019,08,14,11,26,23.70
2019,08,14,11,27,23.70
2019,08,14,11,28,23.70
2019,08,14,11,29,23.80
2019,08,14,11,30,23.80
2019,08,14,11,31,23.80
2019,08,14,11,32,23.70
2019,08,14,11,33,23.70
2019,08,14,11,34,23.60
2019,08,14,11,35,23.50
2019,08,14,11,36,23.50
2019,08,14,11,37,23.50
2019,08,14,11,38,23.50
2019,08,14,11,39,23.50
2019,08,14,11,40,23.50
2019,08,14,11,41,23.60
2019,08,14,11,42,23.60
2019,08,14,11,43,23.50
2019,08,14,11,44,23.50
2019,08,14,11,45,23.50
2019,08,14,11,46,23.50
2019,08,14,11,47,23.50
2019,08,14,11,48,23.60
2019,08,14,11,49,23.60
2019,08,14,11,50,23.60
2019,08,14,11,51,23.60
2019,08,14,11,52,23.60
2019,08,14,11,53,23.60
2019,08,14,11,54,23.70
2019,08,14,11,55,23.70
2019,08,14,11,56,23.80
2019,08,14,11,57,23.80
2019,08,14,11,58,23.90
2019,08,14,11,59,24.00
2019,08,14,12,00,24.10
2019,08,14,12,01,24.20
2019,08,14,12,02,24.20
2019,08,14,12,03,24.30
2019,08,14,12,04,24.30
2019,08,14,12,05,24.40
2019,08,14,12,06,24.50
2019,08,14,12,07,24.50
2019,08,14,12,08,24.60
2019,08,14,12,09,24.60
2019,08,14,12,10,24.60
2019,08,14,12,11,24.70
2019,08,14,12,12,24.70
2019,08,14,12,13,24.70
2019,08,14,12,14,24.70
2019,08,14,12,15,24.70
2019,08,14,12,16,24.80
2019,08,14,12,17,24.80
2019,08,14,12,18,24.90
2019,08,14,12,19,25.00
2019,08,14,12,20,25.00
2019,08,14,12,21,25.10
2019,08,14,12,22,25.10
2019,08,14,12,23,25.20
2019,08,14,12,24,25.20
2019,08,14,12,25,25.20
2019,08,14,12,26,25.20
2019,08,14,12,27,25.20
2019,08,14,12,28,25.20
2019,08,14,12,29,25.20
2019,08,14,12,30,25.20
2019,08,14,12,31,25.20
2019,08,14,12,32,25.20
2019,08,14,12,33,25.10
2019,08,14,12,34,25.10
2019,08,14,12,35,25.10
2019,08,14,12,36,25.10
2019,08,14,12,37,25.10
2019,08,14,12,38,25.10
2019,08,14,12,39,25.10
2019,08,14,12,40,25.10
2019,08,14,12,41,25.10
2019,08,14,12,42,25.10
2019,08,14,12,43,25.10
2019,08,14,12,44,25.10
2019,08,14,12,45,25.10
2019,08,14,12,46,25.00
2019,08,14,12,47,25.00
2019,08,14,12,48,24.90
2019,08,14,12,49,24.90
2019,08,14,12,50,24.90
2019,08,14,12,51,24.80
2019,08,14,12,52,24.80
2019,08,14,12,53,24.80
2019,08,14,12,54,24.80
2019,08,14,12,55,24.70
2019,08,14,12,56,24.70
2019,08,14,12,57,24.60
2019,08,14,12,58,24.70
2019,08,14,12,59,24.70
2019,08,14,13,00,24.70
2019,08,14,13,01,24.80
2019,08,14,13,02,24.80
2019,08,14,13,03,24.80
2019,08,14,13,04,24.90
2019,08,14,13,05,24.90
2019,08,14,13,06,24.90
2019,08,14,13,07,24.90
2019,08,14,13,08,24.90
2019,08,14,13,09,24.90
2019,08,14,13,10,25.00
2019,08,14,13,11,25.00
2019,08,14,13,12,25.10
2019,08,14,13,13,25.10
2019,08,14,13,14,25.20
2019,08,14,13,15,25.20
2019,08,14,13,16,25.30
2019,08,14,13,17,25.40
2019,08,14,13,18,25.40
2019,08,14,13,19,25.50
2019,08,14,13,20,25.50
2019,08,14,13,21,25.60
2019,08,14,13,22,25.60
2019,08,14,13,23,25.60
2019,08,14,13,24,25.60
2019,08,14,13,25,25.70
2019,08,14,13,26,25.70
2019,08,14,13,27,25.70
2019,08,14,13,28,25.70
2019,08,14,13,29,25.80
2019,08,14,13,30,25.80
2019,08,14,13,31,25.80
2019,08,14,13,32,25.80
2019,08,14,13,33,25.80
2019,08,14,13,34,25.90
2019,08,14,13,35,26.00
2019,08,14,13,36,26.00
2019,08,14,13,37,26.10
2019,08,14,13,38,26.20
2019,08,14,13,39,26.20
2019,08,14,13,40,26.20
2019,08,14,13,41,26.30
2019,08,14,13,42,26.30
2019,08,14,13,43,26.30
2019,08,14,13,44,26.40
2019,08,14,13,45,26.40
2019,08,14,13,46,26.40
2019,08,14,13,47,26.40
2019,08,14,13,48,26.50
2019,08,14,13,49,26.50
2019,08,14,13,50,26.40
2019,08,14,13,51,26.40
2019,08,14,13,52,26.40
2019,08,14,13,53,26.40
2019,08,14,13,54,26.30
2019,08,14,13,55,26.30
2019,08,14,13,56,26.20
2019,08,14,13,57,26.20
2019,08,14,13,58,26.10
2019,08,14,13,59,26.00
2019,08,14,14,00,26.00
2019,08,14,14,01,25.90
2019,08,14,14,02,25.90
2019,08,14,14,03,25.90
2019,08,14,14,04,25.90
2019,08,14,14,05,25.90
2019,08,14,14,06,25.90
2019,08,14,14,07,26.00
2019,08,14,14,08,26.00
2019,08,14,14,09,26.10
2019,08,14,14,10,26.10
2019,08,14,14,11,26.10
2019,08,14,14,12,26.10
2019,08,14,14,13,26.10
2019,08,14,14,14,26.20
2019,08,14,14,15,26.20
2019,08,14,14,16,26.20
2019,08,14,14,17,26.30
2019,08,14,14,18,26.30
2019,08,14,14,19,26.30
2019,08,14,14,20,26.40
2019,08,14,14,21,26.40
2019,08,14,14,22,26.40
2019,08,14,14,23,26.40
2019,08,14,14,24,26.30
2019,08,14,14,25,26.30
2019,08,14,14,26,26.30
2019,08,14,14,27,26.20
2019,08,14,14,28,26.20
2019,08,14,14,29,26.20
2019,08,14,14,30,26.20
2019,08,14,14,31,26.20
2019,08,14,14,32,26.20
2019,08,14,14,33,26.20
2019,08,14,14,34,26.20
2019,08,14,14,35,26.20
2019,08,14,14,36,26.20
2019,08,14,14,37,26.20
2019,08,14,14,38,26.10
2019,08,14,14,39,26.10
2019,08,14,14,40,26.10
2019,08,14,14,41,26.10
2019,08,14,14,42,26.10
2019,08,14,14,43,26.10
2019,08,14,14,44,26.10
2019,08,14,14,45,26.10
2019,08,14,14,46,26.10
2019,08,14,14,47,26.10
2019,08,14,14,48,26.10
2019,08,14,14,49,26.10
2019,08,14,14,50,26.10
2019,08,14,14,51,26.10
2019,08,14,14,52,26.10
2019,08,14,14,53,26.10
2019,08,14,14,54,26.10
2019,08,14,14,55,26.10
2019,08,14,14,56,26.10
2019,08,14,14,57,26.10
2019,08,14,14,58,26.10
2019,08,14,14,59,26.00
2019,08,14,15,00,26.00
2019,08,14,15,01,26.00
2019,08,14,15,02,25.90
2019,08,14,15,03,25.90
2019,08,14,15,04,25.80
2019,08,14,15,05,25.80
2019,08,14,15,06,25.80
2019,08,14,15,07,25.80
2019,08,14,15,08,25.80
2019,08,14,15,09,25.80
2019,08,14,15,10,25.80
2019,08,14,15,11,25.80
2019,08,14,15,12,25.80
2019,08,14,15,13,25.80
2019,08,14,15,14,25.80
2019,08,14,15,15,25.80
2019,08,14,15,16,25.90
2019,08,14,15,17,25.90
2019,08,14,15,18,25.90
2019,08,14,15,19,25.90
2019,08,14,15,20,26.00
2019,08,14,15,21,26.00
2019,08,14,15,22,26.10
2019,08,14,15,23,26.10
2019,08,14,15,24,26.20
2019,08,14,15,25,26.20
2019,08,14,15,26,26.20
2019,08,14,15,27,26.20
2019,08,14,15,28,26.20
2019,08,14,15,29,26.20
2019,08,14,15,30,26.20
2019,08,14,15,31,26.20
2019,08,14,15,32,26.20
2019,08,14,15,33,26.20
2019,08,14,15,34,26.10
2019,08,14,15,35,26.10
2019,08,14,15,36,26.10
2019,08,14,15,37,26.20
2019,08,14,15,38,26.20
2019,08,14,15,39,26.30
2019,08,14,15,40,26.30
2019,08,14,15,41,26.30
2019,08,14,15,42,26.30
2019,08,14,15,43,26.30
2019,08,14,15,44,26.40
2019,08,14,15,45,26.40
2019,08,14,15,46,26.40
2019,08,14,15,47,26.40
2019,08,14,15,48,26.40
2019,08,14,15,49,26.40
2019,08,14,15,50,26.40
2019,08,14,15,51,26.40
2019,08,14,15,52,26.40
2019,08,14,15,53,26.40
2019,08,14,15,54,26.50
2019,08,14,15,55,26.50
2019,08,14,15,56,26.60
2019,08,14,15,57,26.60
2019,08,14,15,58,26.60
2019,08,14,15,59,26.70
2019,08,14,16,00,26.70
2019,08,14,16,01,26.70
2019,08,14,16,02,26.70
2019,08,14,16,03,26.70
2019,08,14,16,04,26.80
2019,08,14,16,05,26.80
2019,08,14,16,06,26.90
2019,08,14,16,07,26.90
2019,08,14,16,08,27.00
2019,08,14,16,09,27.10
2019,08,14,16,10,27.10
2019,08,14,16,11,27.20
2019,08,14,16,12,27.20
2019,08,14,16,13,27.20
2019,08,14,16,14,27.20
2019,08,14,16,15,27.20
2019,08,14,16,16,27.20
2019,08,14,16,17,27.10
2019,08,14,16,18,27.10
2019,08,14,16,19,27.10
2019,08,14,16,20,27.10
2019,08,14,16,21,27.00
2019,08,14,16,22,27.00
2019,08,14,16,23,26.90
2019,08,14,16,24,26.80
2019,08,14,16,25,26.70
2019,08,14,16,26,26.60
2019,08,14,16,27,26.60
2019,08,14,16,28,26.50
2019,08,14,16,29,26.50
2019,08,14,16,30,26.50
2019,08,14,16,31,26.50
2019,08,14,16,32,26.50
2019,08,14,16,33,26.40
2019,08,14,16,34,26.40
2019,08,14,16,35,26.40
2019,08,14,16,36,26.40
2019,08,14,16,37,26.40
2019,08,14,16,38,26.40
2019,08,14,16,39,26.40
2019,08,14,16,40,26.50
2019,08,14,16,41,26.50
2019,08,14,16,42,26.40
2019,08,14,16,43,26.50
2019,08,14,16,44,26.50
2019,08,14,16,45,26.40
2019,08,14,16,46,26.40
2019,08,14,16,47,26.30
2019,08,14,16,48,26.30
2019,08,14,16,49,26.20
2019,08,14,16,50,26.10
2019,08,14,16,51,26.00
2019,08,14,16,52,25.90
2019,08,14,16,53,25.90
2019,08,14,16,54,25.80
2019,08,14,16,55,25.80
2019,08,14,16,56,25.70
2019,08,14,16,57,25.70
2019,08,14,16,58,25.70
2019,08,14,16,59,25.60
2019,08,14,17,00,25.60
2019,08,14,17,01,25.60
2019,08,14,17,02,25.60
2019,08,14,17,03,25.60
2019,08,14,17,04,25.60
2019,08,14,17,05,25.60
2019,08,14,17,06,25.60
2019,08,14,17,07,25.60
2019,08,14,17,08,25.60
2019,08,14,17,09,25.60
2019,08,14,17,10,25.70
2019,08,14,17,11,25.70
2019,08,14,17,12,25.70
2019,08,14,17,13,25.70
2019,08,14,17,14,25.70
2019,08,14,17,15,25.60
2019,08,14,17,16,25.60
2019,08,14,17,17,25.60
2019,08,14,17,18,25.60
2019,08,14,17,19,25.60